When you browse on this site, cookies collect data to enhance your experience and personalize the content and advertising you see.
Visit our Privacy Policy to learn more. By continuing to use the site, you agree to this use of cookies and data.
  • In Denmark
  • List of Countries
  • For 7 days
  • Water Temperature
  • Weather Map
  • Weather Widgets
  • user-avatar
    Login

    Hourly Weather Kalgoorlie

    Today, 20 January, Monday

    Time Temperature Precipitation Wind Pressure Humidity
    00:00 +21°C° 0 mm 7 mps 729 mmHg 48%
    01:00 +20°C° 0 mm 7 mps 728 mmHg 52%
    02:00 +18°C° 0 mm 7 mps 728 mmHg 57%
    03:00 +19°C° 0 mm 6 mps 728 mmHg 59%
    04:00 +17°C° 0 mm 6 mps 728 mmHg 62%
    05:00 +17°C° 0 mm 6 mps 728 mmHg 65%
    06:00 +19°C° 0 mm 5 mps 728 mmHg 62%
    07:00 +19°C° 0 mm 5 mps 729 mmHg 59%
    08:00 +20°C° 0 mm 4 mps 729 mmHg 55%
    09:00 +22°C° 0 mm 4 mps 729 mmHg 49%
    10:00 +25°C° 0 mm 3 mps 729 mmHg 43%
    11:00 +26°C° 0 mm 3 mps 728 mmHg 37%
    12:00 +27°C° 0 mm 2 mps 728 mmHg 33%
    13:00 +28°C° 0 mm 2 mps 727 mmHg 30%
    14:00 +29°C° 0 mm 1 mps 727 mmHg 28%
    15:00 +29°C° 0 mm 2 mps 727 mmHg 27%
    16:00 +30°C° 0 mm 2 mps 726 mmHg 26%
    17:00 +30°C° 0 mm 2 mps 726 mmHg 25%
    18:00 +30°C° 0 mm 3 mps 726 mmHg 26%
    19:00 +29°C° 0 mm 4 mps 726 mmHg 27%
    20:00 +28°C° 0 mm 4 mps 726 mmHg 27%
    21:00 +28°C° 0 mm 4 mps 726 mmHg 28%
    22:00 +28°C° 0 mm 4 mps 726 mmHg 28%
    23:00 +27°C° 0 mm 4 mps 726 mmHg 29%

    Tomorrow, 21 January, Tuesday

    Time Temperature Precipitation Wind Pressure Humidity
    00:00 +27°C° 0 mm 4 mps 725 mmHg 30%
    01:00 +26°C° 0 mm 3 mps 725 mmHg 31%
    02:00 +26°C° 0 mm 3 mps 724 mmHg 33%
    03:00 +25°C° 0 mm 3 mps 724 mmHg 34%
    04:00 +25°C° 0 mm 3 mps 724 mmHg 35%
    05:00 +25°C° 0 mm 4 mps 724 mmHg 36%
    06:00 +26°C° 0 mm 5 mps 725 mmHg 33%
    07:00 +28°C° 0 mm 6 mps 725 mmHg 29%
    08:00 +30°C° 0 mm 7 mps 725 mmHg 26%
    09:00 +32°C° 0 mm 7 mps 725 mmHg 25%
    10:00 +34°C° 0 mm 8 mps 725 mmHg 24%
    11:00 +37°C° 0 mm 9 mps 724 mmHg 23%
    12:00 +37°C° 0 mm 9 mps 724 mmHg 22%
    13:00 +38°C° 0 mm 9 mps 723 mmHg 21%
    14:00 +38°C° 0 mm 10 mps 723 mmHg 20%
    15:00 +38°C° 0 mm 9 mps 723 mmHg 18%
    16:00 +37°C° 0 mm 9 mps 722 mmHg 16%
    17:00 +37°C° 0 mm 9 mps 722 mmHg 14%
    18:00 +35°C° 0 mm 8 mps 723 mmHg 18%
    19:00 +33°C° 0 mm 7 mps 723 mmHg 23%
    20:00 +32°C° 0 mm 7 mps 724 mmHg 27%
    21:00 +28°C° 0 mm 8 mps 724 mmHg 38%
    22:00 +24°C° 0 mm 8 mps 724 mmHg 49%
    23:00 +21°C° 0 mm 9 mps 725 mmHg 59%

    Day after tomorrow, 22 January, Wednesday

    Time Temperature Precipitation Wind Pressure Humidity
    00:00 +20°C° 0 mm 8 mps 725 mmHg 61%
    01:00 +18°C° 0 mm 7 mps 725 mmHg 62%
    02:00 +17°C° 0 mm 6 mps 725 mmHg 64%
    03:00 +17°C° 0 mm 6 mps 725 mmHg 63%
    04:00 +16°C° 0 mm 5 mps 726 mmHg 62%
    05:00 +15°C° 0 mm 5 mps 726 mmHg 62%
    06:00 +16°C° 0 mm 5 mps 727 mmHg 58%
    07:00 +16°C° 0 mm 5 mps 727 mmHg 55%
    08:00 +18°C° 0 mm 4 mps 728 mmHg 51%
    09:00 +19°C° 0 mm 4 mps 728 mmHg 44%
    10:00 +21°C° 0 mm 4 mps 728 mmHg 36%
    11:00 +23°C° 0 mm 4 mps 727 mmHg 28%
    12:00 +25°C° 0 mm 5 mps 727 mmHg 26%
    13:00 +27°C° 0 mm 6 mps 727 mmHg 24%
    14:00 +28°C° 0 mm 7 mps 726 mmHg 22%
    15:00 +28°C° 0 mm 7 mps 726 mmHg 25%
    16:00 +28°C° 0 mm 7 mps 726 mmHg 27%
    17:00 +28°C° 0 mm 7 mps 726 mmHg 29%
    18:00 +27°C° 0 mm 7 mps 727 mmHg 32%
    19:00 +24°C° 0 mm 7 mps 727 mmHg 34%
    20:00 +23°C° 0 mm 7 mps 727 mmHg 37%
    21:00 +22°C° 0 mm 7 mps 728 mmHg 40%
    22:00 +21°C° 0 mm 7 mps 728 mmHg 44%
    23:00 +20°C° 0 mm 7 mps 729 mmHg 47%

    23 January, Thursday

    Time Temperature Precipitation Wind Pressure Humidity
    00:00 +20°C° 0 mm 6 mps 728 mmHg 49%
    01:00 +19°C° 0 mm 5 mps 728 mmHg 50%
    02:00 +19°C° 0 mm 4 mps 728 mmHg 52%
    03:00 +18°C° 0 mm 4 mps 728 mmHg 54%
    04:00 +18°C° 0 mm 4 mps 728 mmHg 55%
    05:00 +18°C° 0 mm 4 mps 729 mmHg 57%
    06:00 +19°C° 0 mm 4 mps 729 mmHg 56%
    07:00 +20°C° 0 mm 5 mps 729 mmHg 55%
    08:00 +20°C° 0 mm 6 mps 729 mmHg 53%
    09:00 +22°C° 0 mm 5 mps 730 mmHg 50%
    10:00 +23°C° 0 mm 5 mps 730 mmHg 46%
    11:00 +26°C° 0 mm 5 mps 730 mmHg 42%
    12:00 +27°C° 0 mm 5 mps 729 mmHg 40%
    13:00 +27°C° 0 mm 5 mps 729 mmHg 38%
    14:00 +28°C° 0 mm 5 mps 728 mmHg 36%
    15:00 +29°C° 0 mm 5 mps 728 mmHg 34%
    16:00 +29°C° 0 mm 5 mps 728 mmHg 33%
    17:00 +30°C° 0 mm 5 mps 728 mmHg 31%
    18:00 +29°C° 0 mm 5 mps 728 mmHg 32%
    19:00 +28°C° 0 mm 5 mps 729 mmHg 34%
    20:00 +27°C° 0 mm 5 mps 729 mmHg 35%
    21:00 +26°C° 0 mm 5 mps 729 mmHg 40%
    22:00 +24°C° 0 mm 6 mps 730 mmHg 44%
    23:00 +23°C° 0 mm 7 mps 730 mmHg 49%

    24 January, Friday

    Time Temperature Precipitation Wind Pressure Humidity
    00:00 +22°C° 0 mm 6 mps 730 mmHg 52%
    01:00 +22°C° 0 mm 6 mps 729 mmHg 55%
    02:00 +21°C° 0 mm 6 mps 729 mmHg 57%
    03:00 +20°C° 0 mm 5 mps 729 mmHg 59%
    04:00 +20°C° 0 mm 4 mps 730 mmHg 62%
    05:00 +19°C° 0 mm 4 mps 730 mmHg 64%
    06:00 +20°C° 0 mm 4 mps 730 mmHg 60%
    07:00 +21°C° 0 mm 4 mps 730 mmHg 57%
    08:00 +22°C° 0 mm 3 mps 731 mmHg 53%
    09:00 +25°C° 0 mm 3 mps 731 mmHg 47%
    10:00 +26°C° 0 mm 2 mps 731 mmHg 41%
    11:00 +28°C° 0 mm 2 mps 730 mmHg 35%
    12:00 +29°C° 0 mm 2 mps 730 mmHg 30%
    13:00 +30°C° 0 mm 2 mps 729 mmHg 26%
    14:00 +33°C° 0 mm 3 mps 729 mmHg 22%
    15:00 +33°C° 0 mm 3 mps 729 mmHg 21%
    16:00 +33°C° 0 mm 3 mps 728 mmHg 21%
    17:00 +34°C° 0 mm 3 mps 728 mmHg 20%
    18:00 +33°C° 0 mm 3 mps 728 mmHg 21%
    19:00 +31°C° 0 mm 3 mps 729 mmHg 22%
    20:00 +30°C° 0 mm 3 mps 729 mmHg 23%
    21:00 +30°C° 0 mm 3 mps 729 mmHg 23%
    22:00 +29°C° 0 mm 3 mps 729 mmHg 23%
    23:00 +29°C° 0 mm 2 mps 729 mmHg 23%

    25 January, Saturday

    Time Temperature Precipitation Wind Pressure Humidity
    00:00 +28°C° 0 mm 3 mps 729 mmHg 26%
    01:00 +27°C° 0 mm 3 mps 728 mmHg 28%
    02:00 +26°C° 0 mm 3 mps 728 mmHg 30%
    03:00 +26°C° 0 mm 3 mps 728 mmHg 33%
    04:00 +25°C° 0 mm 3 mps 728 mmHg 36%
    05:00 +24°C° 0 mm 3 mps 728 mmHg 39%
    06:00 +26°C° 0 mm 3 mps 728 mmHg 36%
    07:00 +27°C° 0 mm 4 mps 729 mmHg 33%
    08:00 +29°C° 0 mm 4 mps 729 mmHg 31%
    09:00 +30°C° 0 mm 3 mps 729 mmHg 27%
    10:00 +33°C° 0 mm 3 mps 729 mmHg 24%
    11:00 +34°C° 0 mm 2 mps 729 mmHg 21%
    12:00 +35°C° 0 mm 2 mps 728 mmHg 19%
    13:00 +35°C° 0 mm 1 mps 727 mmHg 16%
    14:00 +36°C° 0 mm 1 mps 727 mmHg 14%
    15:00 +36°C° 0 mm 1 mps 726 mmHg 14%
    16:00 +36°C° 0 mm 1 mps 726 mmHg 13%
    17:00 +37°C° 0 mm 1 mps 726 mmHg 13%
    18:00 +37°C° 0 mm 2 mps 726 mmHg 13%
    19:00 +36°C° 0 mm 3 mps 726 mmHg 14%
    20:00 +35°C° 0 mm 4 mps 726 mmHg 15%
    21:00 +34°C° 0 mm 4 mps 726 mmHg 16%
    22:00 +33°C° 0 mm 4 mps 727 mmHg 18%
    23:00 +32°C° 0 mm 5 mps 727 mmHg 19%
    Show more